Location: American Medical Response
(33.3472°N, 96.5511°W)
Time: 14:46:48
(UTC+00:00)

Cosmos 1515 Rocket - Pass Details

Date: 08 December 2021
Orbit: 606 x 630 km, 82.5° (Epoch: 28 January)

Event Time Altitude Azimuth Distance (km) Brightness Sun altitude
Exits shadow 12:11:04 - 346° (NNW) 2,499 6.4 -13.7°
Reaches altitude 10° 12:12:24 10° 343° (NNW) 1,965 5.8 -13.4°
Maximum altitude 12:16:37 52° 267° (W) 752 3.6 -12.6°
Drops below altitude 10° 12:20:48 10° 191° (S) 1,946 6.2 -11.8°
Sets 12:23:02 0° 186° (S) 2,844 7.1 -11.3°
